| time (UTC) | temp C | wind direction | speed KPH | gust KPH | rain 1hr cm | rain 24hr cm | rain mn cm | humidity % | barometer mb |
| 20260902230009 | 24 | 198 | 4.8 | 12.9 | 0.00 | 0.00 | 0.00 | 30 | 1019.5 |
| 20260902225010 | 23 | 247 | 6.4 | 19.3 | 0.00 | 0.00 | 0.00 | 29 | 1019.6 |
| 20260902222009 | 23 | 38 | 1.6 | 11.3 | 0.00 | 0.00 | 0.00 | 31 | 1019.7 |
| 20260902220010 | 24 | 273 | 4.8 | 14.5 | 0.00 | 0.00 | 0.00 | 30 | 1020.0 |
| 20260902215010 | 24 | 4 | 4.8 | 14.5 | 0.00 | 0.00 | 0.00 | 29 | 1020.1 |
| 20260902214010 | 24 | 216 | 0.0 | 11.3 | 0.00 | 0.00 | 0.00 | 30 | 1020.2 |
| 20260902213010 | 23 | 262 | 4.8 | 11.3 | 0.00 | 0.00 | 0.00 | 31 | 1020.4 |
| 20260902211010 | 23 | 248 | 1.6 | 14.5 | 0.00 | 0.00 | 0.00 | 32 | 1020.3 |
| 20260902205010 | 24 | 191 | 4.8 | 16.1 | 0.00 | 0.00 | 0.00 | 32 | 1020.4 |
| 20260902204010 | 24 | 318 | 6.4 | 14.5 | 0.00 | 0.00 | 0.00 | 32 | 1020.4 |
| 20260902202010 | 24 | 328 | 1.6 | 12.9 | 0.00 | 0.00 | 0.00 | 32 | 1020.5 |
| 20260902201009 | 24 | 296 | 1.6 | 14.5 | 0.00 | 0.00 | 0.00 | 32 | 1020.5 |
| 20260902200011 | 24 | 144 | 1.6 | 11.3 | 0.00 | 0.00 | 0.00 | 31 | 1020.5 |
| 20260902195010 | 24 | 328 | 0.0 | 8.0 | 0.00 | 0.00 | 0.00 | 31 | 1020.5 |
| 20260902194009 | 24 | 145 | 0.0 | 14.5 | 0.00 | 0.00 | 0.00 | 32 | 1020.5 |
| 20260902193009 | 23 | 116 | 1.6 | 14.5 | 0.00 | 0.00 | 0.00 | 34 | 1020.4 |
| 20260902192010 | 23 | 288 | 4.8 | 12.9 | 0.00 | 0.00 | 0.00 | 34 | 1020.5 |
| 20260902190010 | 23 | 0 | 0.0 | 14.5 | 0.00 | 0.00 | 0.00 | 34 | 1020.5 |
| 20260902185010 | 23 | 312 | 8.0 | 16.1 | 0.00 | 0.00 | 0.00 | 35 | 1020.5 |
| 20260902184009 | 23 | 311 | 4.8 | 24.1 | 0.00 | 0.00 | 0.00 | 34 | 1020.6 |
| 20260902183010 | 23 | 260 | 3.2 | 12.9 | 0.00 | 0.00 | 0.00 | 34 | 1020.6 |
| 20260902182009 | 23 | 99 | 3.2 | 16.1 | 0.00 | 0.00 | 0.00 | 35 | 1020.6 |
| 20260902181010 | 22 | 155 | 4.8 | 12.9 | 0.00 | 0.00 | 0.00 | 36 | 1020.6 |
| 20260902180010 | 22 | 256 | 0.0 | 12.9 | 0.00 | 0.00 | 0.00 | 37 | 1020.6 |
| 20260902175009 | 22 | 284 | 3.2 | 14.5 | 0.00 | 0.00 | 0.00 | 36 | 1020.5 |
| 20260902174010 | 22 | 110 | 1.6 | 11.3 | 0.00 | 0.00 | 0.00 | 38 | 1020.5 |
| 20260902173010 | 21 | 172 | 0.0 | 12.9 | 0.00 | 0.00 | 0.00 | 40 | 1020.4 |
| 20260902171010 | 20 | 271 | 4.8 | 14.5 | 0.00 | 0.00 | 0.00 | 42 | 1020.4 |
| 20260902170010 | 20 | 309 | 3.2 | 14.5 | 0.00 | 0.00 | 0.00 | 43 | 1020.3 |
| 20260902165009 | 20 | 281 | 0.0 | 4.8 | 0.00 | 0.00 | 0.00 | 44 | 1020.2 |
| 20260902164009 | 20 | 140 | 0.0 | 0.0 | 0.00 | 0.00 | 0.00 | 45 | 1020.1 |
| 20260902163009 | 19 | 140 | 0.0 | 3.2 | 0.00 | 0.00 | 0.00 | 46 | 1020.0 |
| 20260902162009 | 18 | 121 | 0.0 | 0.0 | 0.00 | 0.00 | 0.00 | 47 | 1019.9 |
| 20260902161010 | 17 | 121 | 0.0 | 8.0 | 0.00 | 0.00 | 0.00 | 50 | 1019.9 |
| 20260902160010 | 16 | 146 | 1.6 | 9.7 | 0.00 | 0.00 | 0.00 | 54 | 1019.9 |
| 20260902155009 | 15 | 140 | 0.0 | 0.0 | 0.00 | 0.00 | 0.00 | 60 | 1019.9 |
| 20260902154009 | 14 | 140 | 1.6 | 8.0 | 0.00 | 0.00 | 0.00 | 65 | 1019.9 |
| 20260902152009 | 12 | 55 | 0.0 | 0.0 | 0.00 | 0.00 | 0.00 | 76 | 1019.9 |
| 20260902151009 | 12 | 55 | 1.6 | 4.8 | 0.00 | 0.00 | 0.00 | 81 | 1019.7 |
| 20260902150010 | 11 | 344 | 0.0 | 0.0 | 0.00 | 0.00 | 0.00 | 89 | 1019.7 |
| 20260902145009 | 10 | 344 | 0.0 | 0.0 | 0.00 | 0.00 | 0.00 | 93 | 1019.6 |
| 20260902144009 | 10 | 344 | 0.0 | 0.0 | 0.00 | 0.00 | 0.00 | 95 | 1019.6 |
| 20260902143009 | 8 | 344 | 0.0 | 0.0 | 0.00 | 0.00 | 0.00 | 96 | 1019.3 |
| 20260902141009 | 8 | 344 | 0.0 | 0.0 | 0.00 | 0.00 | 0.00 | 95 | 1018.9 |
| 20260902140012 | 8 | 344 | 0.0 | 0.0 | 0.00 | 0.00 | 0.00 | 94 | 1019.0 |
| 20260902135009 | 8 | 344 | 0.0 | 0.0 | 0.00 | 0.00 | 0.00 | 94 | 1018.8 |
| 20260902132009 | 8 | 344 | 0.0 | 0.0 | 0.00 | 0.00 | 0.00 | 93 | 1018.4 |
| 20260902131009 | 8 | 344 | 0.0 | 0.0 | 0.00 | 0.00 | 0.00 | 93 | 1018.4 |
| 20260902130009 | 8 | 344 | 0.0 | 0.0 | 0.00 | 0.00 | 0.00 | 93 | 1018.3 |
| 20260902125009 | 8 | 344 | 0.0 | 0.0 | 0.00 | 0.00 | 0.00 | 92 | 1018.3 |
| 20260902124010 | 8 | 344 | 0.0 | 0.0 | 0.00 | 0.00 | 0.00 | 92 | 1018.4 |
| 20260902123009 | 8 | 344 | 0.0 | 0.0 | 0.00 | 0.00 | 0.00 | 92 | 1018.4 |
| 20260902122009 | 8 | 344 | 0.0 | 0.0 | 0.00 | 0.00 | 0.00 | 92 | 1018.4 |
| 20260902121009 | 8 | 344 | 0.0 | 0.0 | 0.00 | 0.00 | 0.00 | 92 | 1018.4 |
| 20260902120009 | 8 | 344 | 0.0 | 0.0 | 0.00 | 0.00 | 0.00 | 91 | 1018.4 |
| 20260902115009 | 8 | 344 | 0.0 | 0.0 | 0.00 | 0.00 | 0.00 | 91 | 1018.5 |
| 20260902114010 | 8 | 344 | 0.0 | 0.0 | 0.00 | 0.00 | 0.00 | 91 | 1018.6 |
| 20260902113010 | 8 | 344 | 0.0 | 0.0 | 0.00 | 0.00 | 0.00 | 90 | 1018.8 |
| 20260902112009 | 9 | 344 | 0.0 | 0.0 | 0.00 | 0.00 | 0.00 | 90 | 1018.8 |
| 20260902111009 | 9 | 344 | 0.0 | 0.0 | 0.00 | 0.00 | 0.00 | 90 | 1018.8 |
| 20260902104010 | 10 | 344 | 0.0 | 0.0 | 0.00 | 0.00 | 0.00 | 87 | 1018.9 |
| 20260902102010 | 10 | 344 | 0.0 | 0.0 | 0.00 | 0.00 | 0.00 | 85 | 1018.8 |
| 20260902101010 | 10 | 344 | 0.0 | 0.0 | 0.00 | 0.00 | 0.00 | 84 | 1018.8 |
| 20260902100011 | 10 | 344 | 0.0 | 0.0 | 0.00 | 0.00 | 0.00 | 84 | 1018.8 |
| 20260902070010 | 11 | 344 | 0.0 | 0.0 | 0.00 | 0.00 | 0.00 | 81 | 1019.2 |
| 20260902065010 | 12 | 344 | 0.0 | 0.0 | 0.00 | 0.00 | 0.00 | 80 | 1019.2 |
| 20260902062009 | 12 | 344 | 0.0 | 0.0 | 0.00 | 0.00 | 0.00 | 76 | 1019.3 |
| 20260902061010 | 12 | 344 | 0.0 | 0.0 | 0.00 | 0.00 | 0.00 | 75 | 1019.3 |
| 20260902060009 | 12 | 344 | 0.0 | 0.0 | 0.00 | 0.00 | 0.00 | 73 | 1019.3 |
| 20260902054009 | 12 | 344 | 0.0 | 1.6 | 0.00 | 0.00 | 0.00 | 73 | 1019.5 |
| 20260902053010 | 12 | 344 | 0.0 | 0.0 | 0.00 | 0.00 | 0.00 | 71 | 1019.5 |
| 20260902052010 | 12 | 344 | 0.0 | 0.0 | 0.00 | 0.00 | 0.00 | 69 | 1019.5 |
| 20260902051010 | 13 | 344 | 0.0 | 0.0 | 0.00 | 0.00 | 0.00 | 67 | 1019.5 |
| 20260902050010 | 13 | 344 | 0.0 | 0.0 | 0.00 | 0.00 | 0.00 | 65 | 1019.4 |
| 20260902045009 | 13 | 344 | 0.0 | 0.0 | 0.00 | 0.00 | 0.00 | 63 | 1019.3 |
| 20260902044009 | 13 | 344 | 0.0 | 0.0 | 0.00 | 0.00 | 0.00 | 61 | 1019.2 |
| 20260902043010 | 13 | 344 | 0.0 | 0.0 | 0.00 | 0.00 | 0.00 | 59 | 1019.1 |
| 20260902042009 | 14 | 344 | 0.0 | 0.0 | 0.00 | 0.00 | 0.00 | 56 | 1019.1 |
| 20260902041009 | 14 | 344 | 0.0 | 0.0 | 0.00 | 0.00 | 0.00 | 54 | 1019.0 |
| 20260902040009 | 15 | 344 | 0.0 | 0.0 | 0.00 | 0.00 | 0.00 | 53 | 1018.6 |
| 20260902034009 | 15 | 344 | 0.0 | 0.0 | 0.00 | 0.00 | 0.00 | 50 | 1018.6 |
| 20260902033010 | 16 | 344 | 0.0 | 0.0 | 0.00 | 0.00 | 0.00 | 49 | 1018.5 |
| 20260902032009 | 16 | 344 | 0.0 | 0.0 | 0.00 | 0.00 | 0.00 | 49 | 1018.4 |
| 20260902031009 | 16 | 344 | 0.0 | 0.0 | 0.00 | 0.00 | 0.00 | 48 | 1018.4 |
| 20260902030009 | 17 | 344 | 0.0 | 0.0 | 0.00 | 0.00 | 0.00 | 48 | 1018.4 |
| 20260902025010 | 17 | 344 | 0.0 | 0.0 | 0.00 | 0.00 | 0.00 | 47 | 1018.4 |
| 20260902023009 | 18 | 344 | 0.0 | 0.0 | 0.00 | 0.00 | 0.00 | 46 | 1018.2 |
| 20260902021009 | 18 | 344 | 0.0 | 0.0 | 0.00 | 0.00 | 0.00 | 44 | 1018.0 |
| 20260902020009 | 19 | 344 | 0.0 | 0.0 | 0.00 | 0.00 | 0.00 | 43 | 1017.9 |
| 20260902013010 | 20 | 311 | 0.0 | 9.7 | 0.00 | 0.00 | 0.00 | 41 | 1018.0 |
| 20260902012009 | 20 | 332 | 0.0 | 14.5 | 0.00 | 0.00 | 0.00 | 40 | 1018.0 |
| 20260902011009 | 20 | 8 | 3.2 | 11.3 | 0.00 | 0.00 | 0.00 | 39 | 1018.1 |
| 20260902010009 | 21 | 287 | 1.6 | 16.1 | 0.00 | 0.00 | 0.00 | 38 | 1018.1 |
| 20260902003010 | 22 | 0 | 3.2 | 11.3 | 0.00 | 0.00 | 0.00 | 36 | 1018.1 |
| 20260902001009 | 23 | 250 | 0.0 | 9.7 | 0.00 | 0.00 | 0.00 | 34 | 1018.3 |
| 20260902000009 | 23 | 271 | 0.0 | 14.5 | 0.00 | 0.00 | 0.00 | 33 | 1018.4 |
| 20260901235009 | 23 | 239 | 1.6 | 16.1 | 0.00 | 0.00 | 0.00 | 33 | 1018.5 |
| 20260901233010 | 23 | 229 | 0.0 | 8.0 | 0.00 | 0.00 | 0.00 | 33 | 1018.5 |
| 20260901232009 | 23 | 289 | 1.6 | 12.9 | 0.00 | 0.00 | 0.00 | 32 | 1018.5 |
| 20260901231009 | 23 | 282 | 0.0 | 12.9 | 0.00 | 0.00 | 0.00 | 32 | 1018.6 |